Preview of NWS' New Version of Forecast
This preview is not operational and should not be used for support decisions.

Regional Weather Roundup (RWR)

Issued by National Weather Service (NWS)

                            
000
ASUS43 KDMX 181306
RWRIA 

WEATHER ROUNDUP FOR IOWA
NATIONAL WEATHER SERVICE DES MOINES IA
800 AM CDT THU APR 18 2019

NOTE: "FAIR" INDICATES FEW OR NO CLOUDS BELOW 12,000 FEET WITH NO
SIGNIFICANT WEATHER AND/OR OBSTRUCTIONS TO VISIBILITY.

* - THESE STATIONS ARE NOT NWS STATIONS...THUS NOT UNDER NWS
QUALITY CONTROL.  THEY ALSO DO NOT REPORT WEATHER SUCH 
AS PRECIPITATION OR FOG.  

IAZ001>003-012>014-020>022-031>034-043>046-181400-
   NORTHWEST IOWA
  
CITY           SKY/WX    TMP DP  RH WIND       PRES   REMARKS
CARROLL *      CLOUDY    45  41  87 N16       29.82R                  
CHEROKEE *     PTSUNNY   41  40  97 NW6       29.82F                  
DENISON *      CLOUDY    43  41  93 VRB6      29.84R                  
LE MARS *      CLOUDY    45  45 100 NW10      29.84S                  
SHELDON *      CLOUDY    43  43 100 NW12      29.81S                  
SIOUX CITY     CLOUDY    44  41  89 NW17G25   29.84R                  
SPENCER        CLOUDY    44  39  82 NW13      29.81R                  
STORM LAKE *   CLOUDY    39  39 100 NW10      29.77S WCI  32          
$$
 
IAZ055>058-069>071-079>083-090>094-181400-
   SOUTHWEST IOWA
  
CITY           SKY/WX    TMP DP  RH WIND       PRES   REMARKS
ATLANTIC *     PTSUNNY   43  43 100 N17       29.82R                  
AUDUBON *      CLOUDY    41  37  87 CALM      29.83R                  
CLARINDA *     SUNNY     45  39  81 N15       29.85R                  
COUNCIL BLFS * CLOUDY    45  45 100 NW12      29.84R                  
CRESTON *      CLOUDY    45  37  76 N21G28    29.80R                  
HARLAN  *      CLOUDY    43  41  93 N12       29.83R                  
LAMONI         CLOUDY    45  38  76 N16G23    29.77R                  
RED OAK *      SUNNY     45  41  87 N14       29.84R                  
SHENANDOAH *   CLOUDY    46  41  81 N14       29.84R                  
$$
 
IAZ047>049-059>061-072>074-084-181400-
   CENTRAL IOWA
  
CITY           SKY/WX    TMP DP  RH WIND       PRES   REMARKS
AMES           CLOUDY    44  38  79 NW14G26   29.77R                  
ANKENY *       PTSUNNY   45  37  76 MISG      29.78R                  
BOONE *        CLOUDY    45  41  87 NW16      29.77R                  
CHARITON *     CLOUDY    45  39  81 NW13G20   29.76R                  
DES MOINES     CLOUDY    45  36  70 N16G24    29.78R                  
GRINNELL*      CLOUDY    42  38  83 NW16G29   29.74R                  
KNOXVILLE *    CLOUDY    45  45 100 NW24G30   29.75R                  
MARSHALLTOWN   CLOUDY    44  39  82 NW17G29   29.73R                  
NEWTON *       CLOUDY    45  39  81 NW20      29.75R                  
PELLA *        CLOUDY    45  37  76 NW16G22   29.76R                  
PERRY *        CLOUDY    44  40  86 NW15      29.79R                  
$$
 
IAZ004>006-015-016-023>025-035-036-181400-
   NORTH CENTRAL IOWA
  
CITY           SKY/WX    TMP DP  RH WIND       PRES   REMARKS
ALGONA *       CLOUDY    41  41 100 N13       29.78R                  
CLARION *      CLOUDY    43  39  87 N16G24    29.77R                  
ESTHERVILLE    CLOUDY    40  38  93 NW13      29.79S WCI  32          
FORT DODGE *   CLOUDY    43  38  82 N9        29.79R                  
MASON CITY     CLOUDY    42  39  89 NW20      29.75S                  
FOREST CITY *  CLOUDY    41  37  87 N13G21    29.76R                  
IOWA FALLS *   CLOUDY    43  40  88 NW17      29.75R                  
$$

IAZ007>011-017>019-026>030-037>042-050>054-066-181400-
   NORTHEAST IOWA
  
CITY           SKY/WX    TMP DP  RH WIND       PRES   REMARKS
CEDAR RAPIDS   CLOUDY    43  40  89 NW15      29.68R                  
CHARLES CITY * CLOUDY    41  37  87 N16G26    29.72R                  
CLINTON *      CLOUDY    47  44  90 W14       29.65R                  
DECORAH *        N/A     41  37  87 NW17G25   29.67R                  
DUBUQUE        CLOUDY    44  39  82 NW17      29.63R                  
MONTICELLO *   CLOUDY    45  41  87 NW16      29.66R                  
OELWEIN *      CLOUDY    41  41 100 NW18G24   29.69R                  
WATERLOO       CLOUDY    44  37  76 NW22G31   29.70R                  
$$
 
IAZ064-065-067-068-078-181400-
   EAST CENTRAL IOWA
  
CITY           SKY/WX    TMP DP  RH WIND       PRES   REMARKS
DAVENPORT      CLOUDY    46  41  82 NW16G26   29.67R                  
IOWA CITY      CLOUDY    46  39  76 NW18G24   29.70R                  
MT. PLEASANT * CLOUDY    46  43  87 N16G24    29.69F                  
MUSCATINE *    CLOUDY    48  41  76 NW12G18   29.69R                  
QUAD CITIES    CLOUDY    49  42  77 NW14      29.65R                  
$$
 
IAZ062-063-075>077-085>089-095>099-181400-
   SOUTHEAST IOWA
  
CITY           SKY/WX    TMP DP  RH WIND       PRES   REMARKS
BURLINGTON     CLOUDY    47  41  80 NW12G22   29.68R                  
FAIRFIELD *    CLOUDY    45  39  81 NW20      29.70R                  
FORT MADISON * CLOUDY    46  45  93 NW14G21   29.69R                  
KEOKUK *       CLOUDY    46  43  87 NW12G25   29.67F                  
OSKALOOSA *    CLOUDY    44  37  76 NW16      29.74R                  
CENTERVILLE *  PTSUNNY   45  39  81 NW15G22   29.76R                  
OTTUMWA        CLOUDY    45  37  73 NW18      29.73R                  
WASHINGTON *   CLOUDY    45  43  93 NW23G29   29.71R                  
$$

ABBREVIATIONS USED IN REMARKS
   TC - TEMPERATURES IN CELSIUS
  WCI - WIND CHILL INDEX
   HX - HEAT INDEX
  VSB - VISIBILITY  
$$